Home   Weather   Québec   Past weeks

Flag for Canada Past Weather in Québec, Quebec, Canada — Yesterday and Last 2 Weeks

Now
59 °F

Partly sunny.


Feels Like: 58 °F
Forecast: N/A
Wind: 8 mph from Southwest

Location: Quebec Weather Station

Current Time: Jun 28, 2017 at 5:00:24 pm

Latest Report: Jun 28, 2017 at 4:22 pm


Visibility: 15 mi

Pressure: 29.92 "Hg

Humidity: 82%

Dew Point: 54 °F

Location of QuébecLocation

Past Weather in Québec — Graph

°F

Québec Temperature Yesterday

Maximum temperature yesterday: 70 °F (at 4:00 pm)
Minimum temperature yesterday: 48 °F (at 3:00 am)
Average temperature yesterday: 58 °F

High & Low Weather Summary for the Past Weeks

 TemperatureHumidityPressure
High88 °F (Jun 18, 3:00 pm)100% (Jun 16, 12:00 pm)30.15 "Hg (Jun 16, 12:00 pm)
Low45 °F (Jun 15, 5:00 am)24% (Jun 13, 6:00 pm)29.38 "Hg (Jun 24, 3:00 am)
Average63 °F77%29.81 "Hg
* Reported Jun 13 3:00 pm — Jun 28 3:43 pm, Québec. Weather by CustomWeather, © 2017

Note: Actual official high and low records may vary slightly from our data, if they occured in-between our weather recording intervals... More about our weather records

Advertising

Québec Weather History for the Previous 24 Hours

Scroll right to see more
 ConditionsComfort  
Time TempWeatherWind HumidityBarometerVisibility
3:43 pm
Wed, Jun 28
61 °FSprinkles. Broken clouds.7 mph83%29.91 "Hg20 mi
3:23 pm59 °FThunderstorms. Partly sunny.10 mph82%29.92 "Hg10 mi
3:00 pm61 °FThunderstorms. Partly sunny.15 mph88%29.92 "Hg10 mi
2:53 pm63 °FThunderstorms. Partly sunny.17 mph77%29.92 "Hg10 mi
2:34 pm63 °FThunderstorms. Partly sunny.13 mph77%29.90 "Hg15 mi
1:00 pm66 °FBroken clouds.14 mph64%29.90 "Hg30 mi
12:00 pm66 °FPartly sunny.14 mph64%29.90 "Hg15 mi
11:00 am64 °FBroken clouds.9 mph73%29.91 "Hg15 mi
10:00 am61 °FPartly sunny.7 mph83%29.93 "Hg15 mi
9:00 am61 °FBroken clouds.9 mph77%29.93 "Hg12 mi
8:00 am57 °FBroken clouds.9 mph88%29.92 "Hg12 mi
7:00 am55 °FScattered showers. Partly sunny.6 mph94%29.91 "Hg12 mi
6:00 am54 °FSprinkles. Partly sunny.8 mph94%29.90 "Hg8 mi
5:00 am52 °FPartly sunny.No wind94%29.90 "Hg30 mi
4:00 am50 °FPassing clouds.2 mph94%29.89 "Hg15 mi
3:00 am52 °FPartly cloudy.No wind94%29.89 "Hg15 mi
2:00 am52 °FPassing clouds.No wind94%29.90 "Hg15 mi
1:00 am52 °FPassing clouds.2 mph88%29.90 "Hg15 mi
12:00 am52 °FPassing clouds.2 mph94%29.90 "Hg15 mi
11:00 pm
Tue, Jun 27
52 °FPassing clouds.3 mph94%29.89 "Hg15 mi
10:00 pm54 °FPassing clouds.2 mph94%29.89 "Hg15 mi
9:00 pm57 °FPartly cloudy.5 mph82%29.88 "Hg15 mi
8:00 pm57 °FBroken clouds.10 mph82%29.88 "Hg15 mi
7:26 pm57 °FSprinkles. Broken clouds.7 mph88%29.89 "Hg15 mi
7:00 pm57 °FThunderstorms. More clouds than sun.12 mph82%29.90 "Hg7 mi
6:29 pm61 °FThunderstorms. Mostly cloudy.18 mph72%29.87 "Hg30 mi
6:00 pm70 °FScattered showers. Broken clouds.5 mph53%29.84 "Hg15 mi
5:00 pm68 °FScattered showers. Broken clouds.5 mph56%29.86 "Hg25 mi
Weather by CustomWeather, © 2017

See weather overviewHow to use our weather pages